Printer-friendly version
Follow the MPC on Twitter Follow the MPC on Facebook The MPC blog
Minor Planet Center

MPEC 2000-N07 : 2000 NM

The following Minor Planet Electronic Circular may be linked-to from your own Web pages, but must not otherwise be redistributed electronically.

A form allowing access to any MPEC is at the bottom of this page.


Read MPEC 2000-N06 Read MPEC 2000-N08


M.P.E.C. 2000-N07                                Issued 2000 July 3, 22:48 UT

     The Minor Planet Electronic Circulars contain information on unusual
         minor planets and routine data on comets.  They are published
   on behalf of Commission 20 of the International Astronomical Union by the
          Minor Planet Center, Smithsonian Astrophysical Observatory,
                          Cambridge, MA 02138, U.S.A.

             Prepared using the Tamkin Foundation Computer Network

             BMARSDEN@CFA.HARVARD.EDU or GWILLIAMS@CFA.HARVARD.EDU
          URL http://cfa-www.harvard.edu/iau/mpc.html  ISSN 1523-6714

                                    2000 NM

Observations:
     K00N00M* C2000 07 02.16637 18 12 37.93 -10 20 56.1                      823
     K00N00M  C2000 07 02.19145 18 12 34.56 -10 16 55.8                      823
     K00N00M  C2000 07 02.85142 18 11 15.57 -08 28 14.5          13.8 R      046
     K00N00M  C2000 07 02.85235 18 11 15.44 -08 28 05.3                      046
     K00N00M  C2000 07 02.85300 18 11 15.35 -08 27 58.8                      046
     K00N00M  C2000 07 02.85369 18 11 15.26 -08 27 51.7                      046
     K00N00M  C2000 07 02.85446 18 11 15.16 -08 27 44.0                      046
     K00N00M  C2000 07 02.85509 18 11 15.06 -08 27 37.5                      046
     K00N00M  C2000 07 02.85920 18 11 14.46 -08 26 56.9                      557
     K00N00M  C2000 07 02.85995 18 11 14.37 -08 26 49.2                      557
     K00N00M  C2000 07 02.86071 18 11 14.26 -08 26 41.4                      557
     K00N00M  C2000 07 02.86209 18 11 14.07 -08 26 27.8                      557
     K00N00M  C2000 07 02.86285 18 11 13.97 -08 26 20.0                      557
     K00N00M  C2000 07 02.86362 18 11 13.87 -08 26 12.5          13.0 V      557
     K00N00M  C2000 07 02.86975 18 11 13.03 -08 25 10.2                      557
     K00N00M  C2000 07 02.87814 18 11 11.89 -08 23 45.3                      557
     K00N00M  C2000 07 02.88665 18 11 10.72 -08 22 19.0                      557
     K00N00M  C2000 07 02.89508 18 11 09.56 -08 20 53.6                      557
     K00N00M  C2000 07 02.90815 18 11 07.75 -08 18 40.7                      557
     K00N00M  C2000 07 02.91657 18 11 06.60 -08 17 15.5          13.0 V      557
     K00N00M  C2000 07 02.92588 18 11 05.38 -08 15 39.2          13.1 V      595
     K00N00M  C2000 07 02.94145 18 11 03.20 -08 13 00.7                      595
     K00N00M  C2000 07 02.94424 18 11 02.82 -08 12 32.3                      595
     K00N00M  C2000 07 03.07880 18 10 47.56 -07 49 32.3                      823
     K00N00M  C2000 07 03.08236 18 10 47.08 -07 48 56.0                      823
     K00N00M  C2000 07 03.08713 18 10 46.44 -07 48 07.4                      823
     K00N00M  C2000 07 03.09587 18 10 45.24 -07 46 37.3                      823
     K00N00M  C2000 07 03.22115 18 10 29.36 -07 24 57.2                      854
     K00N00M  C2000 07 03.22263 18 10 29.15 -07 24 41.5          14.2 R      854
     K00N00M  C2000 07 03.22373 18 10 29.00 -07 24 30.0                      854
     K00N00M  C2000 07 03.23253 18 10 27.74 -07 23 01.3          14.8        682
     K00N00M  C2000 07 03.23446 18 10 27.47 -07 22 39.0          14.4 R      854
     K00N00M  C2000 07 03.23729 18 10 27.06 -07 22 10.2                      854
     K00N00M  C2000 07 03.23883 18 10 26.86 -07 21 54.1          14.0 R      854
     K00N00M  C2000 07 03.24477 18 10 26.32 -07 21 01.9                      642
     K00N00M  C2000 07 03.24650 18 10 26.06 -07 20 43.9                      642
     K00N00M  C2000 07 03.24767 18 10 25.90 -07 20 32.5                      642
     K00N00M  C2000 07 03.26458 18 10 23.19 -07 17 30.5          15.0        682
     K00N00M  C2000 07 03.26459 18 10 23.55 -07 17 28.0                      670
     K00N00M  C2000 07 03.27236 18 10 22.44 -07 16 07.3                      670
     K00N00M  C2000 07 03.28448 18 10 20.23 -07 13 59.9          14.3 R      854
     K00N00M  C2000 07 03.28606 18 10 19.98 -07 13 43.4          14.3 R      854
     K00N00M  C2000 07 03.29394 18 10 19.01 -07 12 26.2          17.2        682
     K00N00M  C2000 07 03.32712 18 10 14.53 -07 06 36.3          12.6        670
     K00N00M  C2000 07 03.39973 18 10 04.10 -06 53 55.0                      670
     K00N00M  C2000 07 03.53027 18 09 50.39 -06 30 59.8                      300
     K00N00M  C2000 07 03.53106 18 09 50.28 -06 30 51.2                      300
     K00N00M  C2000 07 03.53179 18 09 50.15 -06 30 42.9                      300
     K00N00M  C2000 07 03.53341 18 09 49.93 -06 30 25.9                      300
     K00N00M  C2000 07 03.61080 18 09 38.55 -06 16 45.1                      900
     K00N00M  C2000 07 03.61648 18 09 37.71 -06 15 44.6          14.5 V      900
     K00N00M  C2000 07 03.62392 18 09 36.61 -06 14 25.1                      900
     K00N00M  C2000 07 03.62959 18 09 35.79 -06 13 24.5                      900
     K00N00M  C2000 07 03.69568 18 09 26.07 -06 01 38.0          14.7 V      349
     K00N00M  C2000 07 03.70970 18 09 24.09 -05 59 07.3                      349
     K00N00M  C2000 07 03.71264 18 09 23.66 -05 58 36.3                      349
     K00N00M  C2000 07 03.71425 18 09 23.44 -05 58 18.4                      349
     K00N00M  C2000 07 03.71473 18 09 23.37 -05 58 13.4                      349
     K00N00M  C2000 07 03.90468 18 09 01.63 -05 24 14.0          13.9 R      163
     K00N00M  C2000 07 03.90567 18 09 01.48 -05 24 03.2          13.8 R      163
     K00N00M  C2000 07 03.90731 18 09 01.25 -05 23 45.2          14.0 R      163
     K00N00M  C2000 07 03.90814 18 09 01.14 -05 23 36.4          14.1 R      163
     K00N00M  C2000 07 03.90881 18 09 01.04 -05 23 28.9          13.9 R      163
     K00N00M  C2000 07 03.90968 18 09 00.91 -05 23 19.8          14.1 R      163
     K00N00M  C2000 07 03.91671 18 08 59.60 -05 22 01.1          12.7        106
     K00N00M  C2000 07 03.92407 18 08 58.53 -05 20 41.5          13.1        106
     K00N00M  C2000 07 03.92938 18 08 57.77 -05 19 43.7          12.6        106

Observer details:
046 Klet.  Observers J. Ticha, M. Tichy.  0.57-m f/5.2 reflector + CCD.
106 Crni Vrh.  Observer J. Skvarc.  0.36-m f/6.7 Schmidt-Cassegrain + CCD.
163 Roeser Observatory, Luxembourg.  Observer M. Dawson.  0.457-m f/4.5
    reflector + CCD.
300 Bisei Spaceguard Center-BATTeRS.  Observers A. Asami, D. J. Asher,
    S. Hashimoto, S. Isobe, S. Nakano, Y. Oshima, J. Terazono, T. Urata,
    M. Yoshikawa.  0.50-m f/2.0 reflector + CCD.
349 Ageo.  Observer K. Kadota.  0.18-m f/5.5 reflector + CCD.
557 Ondrejov.  Observer P. Kusnirak.  0.65-m f/3.6 reflector + CCD.
595 Farra d'Isonzo.  Observers G. Lombardi, E. Pettarin.  0.40-m f/4.5
    reflector + CCD.
642 Oak Bay, Victoria.  Observer C. E. Spratt.  0.20-m f/4.7 Schmidt-Cassegrain
    + CCD.
670 Camarillo.  Observer J. E. Rogers.  0.30-m f/6.7 Helin Telescope + CCD.
682 Kanab.  Observer E. Sheridan.  0.25-m f/4 Schmidt-Cassegrain + CCD.
823 Fitchburg.  Observer L. L. Amburgey.  0.212-m reflector + CCD.
854 Sabino Canyon Observatory, Tucson.  Observer J. E. McGaha.  0.30-m f/6.1
    Schmidt-Cassegrain + CCD.
900 Moriyama.  Observer Y. Ikari.  0.25-m f/6.3 reflector + CCD.

Orbital elements:
2000 NM
Epoch 2000 June 25.0 TT = JDT 2451720.5                 Williams
M 346.61206              (2000.0)            P               Q
n   0.21990269     Peri.   69.84283     +0.89304610     +0.23679251
a   2.7184146      Node   274.90199     -0.39044983     +0.83044242
e   0.6633685      Incl.   22.58319     +0.22364614     +0.50427641
P   4.48           H   16.3           G   0.15
From 67 observations 2000 July 2-3.

